[Iaude] MPEC C102: 2024 CT1 [a=1.38,e=0.47,i=17.7,H=22.4]

mpec at cfa.harvard.edu mpec at cfa.harvard.edu
Fri Feb 9 09:48:30 EST 2024


M.P.E.C. 2024-C102                             Issued 2024 February 9, 14:46 UT

     The Minor Planet Electronic Circulars contain information on unusual
         minor planets, routine data on comets and natural satellites,
         and occasional editorial announcements.  They are published
    on behalf of Division F of the International Astronomical Union by the
          Minor Planet Center, Smithsonian Astrophysical Observatory,
                          Cambridge, MA 02138, U.S.A.
			  
             Prepared using the Tamkin Foundation Computer Network

                              MPC at CFA.HARVARD.EDU
            URL https://www.minorplanetcenter.net/    ISSN 1523-6714

                                    2024 CT1                                    


Observations:
     K24C01T  C2024 02 05.48611610 48 02.332-16 08 39.99         21.50GVEC102F52
     K24C01T  C2024 02 05.49726010 47 58.081-16 08 50.97         21.37GVEC102F52
     K24C01T  C2024 02 05.50838010 47 53.841-16 09 01.65         21.21GVEC102F52
     K24C01T* C2024 02 06.49087310 41 59.921-16 24 01.03         20.66wXEC102F52
     K24C01T  C2024 02 06.50129410 41 56.065-16 24 09.99         20.59wXEC102F52
     K24C01T  C2024 02 06.51169810 41 52.226-16 24 18.64         20.67wXEC102F52
     K24C01T  C2024 02 06.52210610 41 48.404-16 24 27.31         20.70wXEC102F52
     K24C01T  C2024 02 06.58139910 41 26.528-16 25 16.20         20.42GVEC102F52
     K24C01T  C2024 02 06.58221810 41 26.247-16 25 16.87         20.52GVEC102F52
     K24C01T  C2024 02 07.07544710 38 36.56 -16 31 18.4                WEC102X09
     K24C01T  C2024 02 07.08418110 38 33.47 -16 31 25.9                WEC102X09
     K24C01T KC2024 02 09.59067010 24 38.462-16 57 16.06         20.8 GVEC102474
     K24C01T KC2024 02 09.59422710 24 37.277-16 57 17.46         20.9 GVEC102474
     K24C01T KC2024 02 09.59778410 24 36.101-16 57 19.26         20.9 GVEC102474
     K24C01T KC2024 02 09.60134010 24 34.934-16 57 20.45         21.3 GVEC102474

Observer details:
474 Mount John Observatory, Lake Tekapo.  Observers A. C. Gilmore, P. M.
    Kilmartin.  Measurer P. M. Kilmartin.  1.0-m f/7.7 Reflector + CCD.
F52 Pan-STARRS 2, Haleakala.  Observers J. Herman, T. Lowe, P. Minguez, A.
    Schultz, I. Smith.  Measurers K. Chambers, T. de Boer, J. Fairlamb, H.
    Gao, M. Huber, C.-C. Lin, E. Magnier, Y. Ramanjooloo, R. Wainscoat, R.
    Weryk.  1.8-m Ritchey-Chretien + CCD.
X09 Deep Random Survey, Rio Hurtado.  Observers A. Schnabel, D. Ruhela.
    Measurer S. Deen.  0.43-m reflector + CMOS.

Orbital elements:
2024 CT1                                                 Earth MOID = 0.0325 AU
Epoch 2023 Sept. 13.0 TT = JDT 2460200.5                MPC                     
M 317.51207              (2000.0)            P               Q                  
n   0.60835439     Peri.   94.04377     +0.70164756     -0.67144533             
a   1.3794256      Node   308.33765     +0.47095840     +0.68814629             
e   0.4671624      Incl.   17.69710     +0.53468579     +0.27498338             
P   1.62           H   22.41          G   0.15           U   9                  
Residuals in seconds of arc
240205 F52  0.1-  0.2-    240206 F52  0.1+  0.1+    240207 X09  0.4+  0.2+
240205 F52  0.0   0.1-    240206 F52  0.4+  0.1+    240209 474  0.3+  0.2-
240205 F52  0.1+  0.2+    240206 F52  0.2-  0.0     240209 474  0.0   0.0
240206 F52  0.0   0.0     240206 F52  0.1+  0.0     240209 474  0.1-  0.1-
240206 F52  0.0   0.1-    240207 X09  0.5+  0.5+    240209 474  0.2-  0.3+

Ephemeris:
2024 CT1                 a,e,i = 1.38, 0.47, 18                  q = 0.7350
Date    TT    R. A. (2000) Decl.     Delta      r    Elong.  Phase     V
2024 01 10    14 09 25.4 +04 03 28   0.1804  0.9703    80.6    88.9    21.8
...
2024 01 25    12 09 15.8 -10 11 01   0.1896  1.0854   117.6    53.5    20.9
...
2024 02 02    11 10 28.6 -14 56 20   0.2162  1.1471   134.4    37.9    20.9
...
2024 02 08    10 33 18.6 -16 42 34   0.2455  1.1928   143.6    29.4    21.0
2024 02 09    10 27 48.3 -16 52 32   0.2511  1.2004   144.8    28.3    21.1
2024 02 10    10 22 30.1 -17 00 35   0.2569  1.2079   145.9    27.3    21.1
...
2024 02 16    09 54 56.8 -17 15 18   0.2957  1.2527   150.1    23.2    21.4
...
2024 02 24    09 28 42.3 -16 34 56   0.3570  1.3109   150.1    22.1    21.8
...
2024 03 10    09 03 57.0 -14 10 17   0.4961  1.4146   141.3    26.1    22.8

A. U. Tomatic                (C) Copyright 2024 MPC           M.P.E.C. 2024-C102





More information about the Iaude mailing list